{"data":{"norad_id":60445,"epoch":"2026-05-25T05:17:18.887136Z","epoch_age_seconds":55189,"freshness":"FRESH","line1":"1 60445U 24144W   26145.22035749  .00001527  00000+0  56332-4 0  9991","line2":"2 60445  53.1590 220.4258 0001075  83.0660 277.0465 15.34393953101089","mean_motion":15.34393953,"eccentricity":0.0001075,"inclination_deg":53.159,"raan_deg":220.4258,"arg_perigee_deg":83.066,"mean_anomaly_deg":277.0465,"bstar":5.6332e-5,"rev_number":10108,"period_min":93.848127932501,"perigee_km":461.98582096656,"apogee_km":463.4566054824,"semimajor_km":6840.8582132245,"source":"CELESTRAK","updated_at":"2026-05-25T13:38:19.277153Z"}}